Temperature
13 13 14 14 12 11 12 13 13 14 14 15 15 16 15 14 15 16 15 15 16 16 16 16 16 16 16 16 16 16 16 16 16 16 16 16 16 16 16 16 16 15 15 15 15 15 15 15 15
12 13 14 13 11 11 12 12 13 14 14 15 15 14 14 13 14 14 14 15 15 15 15 15 15 16 16 16 16 16 16 16 16 16 16 16 16 16 15 15 15 15 15 15 15 15 15 15 15
12 13 13 10 10 11 13 13 12 13 14 14 13 13 13 13 13 14 14 14 15 15 15 15 15 16 16 16 16 16 16 16 16 16 16 16 15 15 15 15 15 15 15 15 15 15 15 15 15
12 12 12 10 11 11 12 13 12 12 13 13 13 12 12 13 13 14 14 14 14 15 15 15 15 15 15 16 16 16 16 16 16 16 16 15 15 15 15 15 15 15 15 15 15 15 15 15 15
12 12 10 10 11 11 11 12 13 12 12 12 12 11 12 13 13 13 14 14 14 14 15 15 15 15 15 15 15 15 15 15 15 15 15 15 15 15 15 15 15 15 15 15 15 15 15 15 14
11 9 9 9 10 11 11 13 13 12 12 12 12 11 12 12 13 13 13 14 14 14 14 15 15 15 15 15 15 15 15 15 15 15 15 15 15 15 15 15 15 15 15 15 14 14 14 14 14
10 8 9 10 10 11 12 13 13 11 11 12 12 11 11 12 13 13 13 13 14 14 14 14 14 15 15 15 15 15 15 15 15 15 15 15 15 15 15 15 15 14 14 14 14 14 14 14 14
10 8 9 9 10 11 12 12 13 12 11 12 12 11 11 12 12 13 13 13 13 14 14 14 14 14 14 14 14 15 15 15 15 14 14 14 14 14 14 14 14 14 14 14 14 14 14 14 14
10 8 9 9 10 11 11 11 12 12 12 11 12 12 12 12 12 13 13 13 13 13 14 14 14 14 14 14 14 14 14 14 14 14 14 14 14 14 14 14 14 14 14 14 14 14 14 14 13
9 8 9 10 10 10 11 11 11 11 10 10 11 12 12 12 12 13 13 13 13 13 13 14 14 14 14 14 14 14 14 14 14 14 14 14 14 14 14 14 14 14 14 14 14 14 13 13 13
9 9 10 10 11 11 10 10 11 11 10 11 11 12 12 12 12 12 12 12 13 13 13 13 13 13 13 13 13 13 13 13 13 14 14 13 13 13 13 13 13 13 13 13 13 13 13 13 13
8 9 10 10 11 11 10 10 10 11 11 12 13 13 12 12 12 12 12 12 12 12 12 13 13 13 13 13 13 13 13 13 13 13 13 13 13 13 13 13 13 13 13 13 13 13 13 13 13
8 9 10 10 10 10 10 10 10 10 11 12 12 12 12 11 11 11 11 12 12 12 12 12 12 13 13 13 13 13 13 13 13 13 13 13 13 13 13 13 13 13 13 13 13 13 13 12 12
8 9 9 10 10 10 10 9 10 9 10 11 11 11 11 11 11 11 11 11 11 12 12 12 12 12 12 12 12 12 12 12 12 12 12 12 12 12 12 12 12 12 12 12 12 12 12 12 12
9 8 9 9 10 10 10 10 9 9 10 10 10 10 11 11 11 11 11 11 11 11 12 12 12 12 12 12 12 12 12 12 12 12 12 12 12 12 12 12 12 12 12 12 12 12 12 12 12
8 8 8 9 9 10 10 10 9 9 10 9 9 10 10 10 10 11 11 11 11 11 11 11 11 11 11 11 11 11 11 12 11 11 11 11 11 11 11 11 11 11 11 11 11 11 11 11 11
7 7 8 9 9 9 9 9 9 9 9 9 9 9 10 10 10 10 10 11 11 11 11 11 11 11 11 11 11 11 11 11 11 11 11 11 11 11 11 11 11 11 11 11 11 11 11 11 11
7 7 8 9 9 9 8 8 8 9 9 8 9 9 9 10 10 10 10 10 10 10 10 10 11 11 11 11 11 11 11 11 10 10 10 10 10 10 10 10 10 10 10 10 10 10 10 10 10
8 8 8 8 8 9 8 8 8 8 8 8 8 9 10 10 10 10 10 10 10 10 10 10 10 10 10 10 10 10 10 10 10 10 10 10 10 10 10 10 10 10 10 10 10 10 10 10 10
8 8 8 8 8 8 8 8 8 8 8 8 9 9 10 10 10 10 10 10 10 10 10 10 10 10 10 10 10 10 10 10 10 10 9 9 9 9 9 9 9 9 9 9 9 9 9 9 9
8 8 7 8 8 8 8 9 8 8 8 9 9 9 10 10 10 10 10 10 10 10 10 10 10 10 9 9 9 9 9 9 9 9 9 9 9 9 9 9 9 9 9 9 9 9 9 8 8
8 8 8 8 7 7 8 8 9 8 8 8 9 9 10 10 10 10 10 10 10 10 9 9 9 9 9 9 9 9 9 9 9 9 9 9 9 9 9 9 9 9 8 8 8 8 8 8 8
7 7 7 7 7 7 6 7 7 7 8 8 8 9 10 10 10 10 10 10 10 9 9 9 9 9 9 9 9 9 9 9 9 8 8 8 8 8 8 8 8 8 8 8 8 8 8 7 7
7 7 7 5 6 8 7 7 8 6 8 8 8 9 10 10 10 10 10 10 10 9 9 9 9 9 9 9 9 9 9 8 8 8 8 8 8 8 8 8 8 8 8 7 7 7 7 7 7
7 7 6 7 6 7 6 6 6 7 7 7 8 9 10 10 10 10 10 10 10 9 9 9 9 8 8 8 8 8 8 8 8 8 8 8 8 8 7 7 7 7 7 7 7 7 7 7 6
7 7 7 8 7 6 6 6 7 7 7 8 8 9 10 10 10 10 10 10 9 9 9 9 9 8 8 8 8 8 8 8 8 7 7 7 7 7 7 7 7 7 7 7 6 6 6 6 6
7 6 6 5 6 6 6 6 7 7 7 7 8 8 9 10 10 10 10 9 9 9 9 9 8 8 8 8 8 7 7 7 7 7 7 7 7 7 7 7 6 6 6 6 6 6 6 6 5
7 5 5 6 7 8 7 7 6 7 7 7 7 8 9 9 9 9 9 9 9 9 8 8 8 8 8 7 7 7 7 7 7 7 7 7 6 6 6 6 6 6 6 6 6 6 5 5 5
7 6 5 4 5 7 7 7 7 7 7 6 6 8 9 9 9 9 9 9 9 8 8 8 8 7 7 7 7 7 7 7 7 7 7 6 6 6 6 6 6 6 6 5 5 5 5 5 5
6 6 5 6 6 5 5 6 7 6 6 6 7 8 9 9 9 9 9 9 8 8 8 8 8 7 7 7 7 7 6 6 6 6 6 6 6 6 6 5 5 5 5 5 5 5 4 4 4
Wind_Speed
5 4 3 4 4 2 5 5 4 3 3 1 1 4 6 5 4 4 1 3 6 6 7 10 11 11 11 11 11 10 10 10 9 9 8 8 7 7 7 7 7 6 6 6 6 6 6 6 6
2 2 4 4 4 4 6 5 5 4 4 3 3 4 4 2 1 3 2 3 6 7 8 9 11 11 11 11 10 10 10 9 9 8 8 7 7 6 6 6 6 6 6 6 6 6 5 5 5
1 3 3 3 4 7 5 4 5 1 2 3 3 3 3 2 2 2 2 5 6 6 7 9 11 11 11 10 10 10 9 9 8 8 8 7 6 6 5 6 6 5 5 5 5 5 5 5 4
3 3 3 2 7 5 4 3 3 4 2 3 4 4 2 2 0 2 4 5 7 6 7 9 11 11 11 10 10 9 9 8 8 8 7 7 7 6 6 6 6 5 5 5 4 4 4 4 4
3 3 2 3 6 4 4 2 4 3 3 2 3 4 1 3 3 5 5 6 7 6 7 9 11 11 10 10 10 9 8 8 8 7 7 7 7 7 6 6 6 6 5 4 4 4 4 4 4
3 2 3 5 5 3 3 2 2 2 3 2 4 4 1 1 4 5 5 5 6 6 7 8 10 10 10 10 10 9 9 8 8 7 7 7 7 6 6 6 6 6 5 4 4 4 4 4 4
3 3 4 4 4 3 3 2 4 3 3 4 4 5 2 1 2 5 6 6 7 7 8 8 8 10 10 10 10 10 9 9 8 8 8 7 7 7 7 6 6 5 5 5 5 5 4 4 5
3 3 3 3 4 5 2 1 2 3 3 2 3 6 5 4 4 6 7 7 7 7 7 7 8 9 9 9 10 10 10 10 9 9 9 8 8 7 6 6 6 6 5 5 5 5 5 5 5
3 2 3 5 5 4 2 1 1 2 4 2 1 1 3 7 7 8 7 5 5 6 5 6 7 8 8 8 9 10 10 9 9 9 9 9 8 7 6 7 6 6 6 6 6 6 6 6 6
3 3 5 4 3 3 2 2 3 3 2 2 2 3 7 8 8 8 7 5 4 4 4 4 6 6 7 7 8 8 8 9 9 9 9 8 8 7 6 6 7 7 6 7 7 7 7 6 5
2 4 3 3 2 2 1 1 2 6 3 5 7 8 9 8 7 7 6 5 4 3 4 4 5 6 6 6 6 7 7 8 8 8 8 8 7 7 7 6 7 7 6 6 6 7 6 5 5
1 2 2 3 1 1 2 2 2 1 2 2 6 9 9 9 7 7 6 4 4 4 4 4 4 5 5 6 5 5 5 5 6 7 7 7 6 6 6 5 5 6 5 5 5 5 6 5 5
0 1 2 2 2 1 2 2 2 2 2 5 9 9 8 7 6 4 5 4 5 4 3 3 4 4 4 5 4 5 4 5 5 6 7 7 5 3 4 4 5 5 5 5 4 4 4 4 4
1 0 2 4 2 1 3 1 2 1 3 8 9 8 6 6 5 5 4 4 4 3 3 3 4 4 5 4 3 3 4 5 6 6 7 7 6 4 4 4 4 5 5 5 4 3 3 3 3
1 2 3 4 3 1 2 3 1 1 5 7 6 5 5 4 4 4 4 4 4 3 3 3 3 4 5 4 4 4 4 5 5 6 7 7 7 6 5 3 3 5 6 5 4 4 3 2 3
3 3 2 4 4 3 3 1 1 2 7 5 4 4 4 2 3 3 3 3 3 3 3 3 3 4 4 4 3 4 5 5 5 5 6 7 7 6 5 3 3 6 6 5 3 3 3 3 3
4 2 1 2 3 2 3 2 0 2 5 4 3 3 2 2 1 2 3 3 3 3 3 3 4 4 3 4 4 4 5 4 5 5 6 6 6 6 5 4 4 6 4 4 3 3 2 3 4
1 2 1 1 2 3 3 1 1 1 3 4 3 2 2 3 3 2 3 3 3 2 2 3 3 3 3 3 3 3 3 3 4 4 5 5 5 5 5 4 5 6 3 3 3 3 3 2 3
3 4 2 2 2 3 2 1 2 1 2 3 3 3 4 4 2 2 3 3 3 2 2 2 2 2 2 2 2 2 1 2 2 3 5 5 5 5 5 4 4 4 3 3 3 2 3 3 3
4 4 2 3 4 2 2 1 2 2 3 4 5 5 6 4 2 3 3 3 3 2 2 2 2 1 1 1 1 1 0 0 1 2 4 5 5 5 3 3 2 3 2 3 3 3 2 2 3
4 3 1 1 3 6 3 4 2 1 1 2 3 4 4 6 6 4 4 4 3 3 3 2 2 2 1 2 2 2 2 2 2 2 2 3 4 4 3 3 2 2 2 2 2 2 2 1 2
1 0 2 2 4 3 3 1 4 2 3 3 4 4 5 4 5 5 5 4 4 4 3 2 2 2 1 2 2 1 1 1 2 1 1 2 3 3 3 2 2 2 2 2 2 2 1 0 1
1 2 4 3 3 2 3 1 7 2 4 6 6 6 5 5 5 5 5 5 5 3 3 2 2 1 1 2 2 2 1 2 1 1 2 2 2 2 2 2 2 2 1 2 2 1 1 0 0
1 4 6 5 4 2 1 2 5 4 5 5 4 5 4 4 4 4 3 3 3 2 2 2 2 2 1 2 2 2 3 2 2 2 2 2 1 2 2 2 1 1 1 1 1 1 1 1 0
5 6 5 5 4 4 2 2 8 6 5 5 5 4 3 3 3 3 3 3 3 3 3 3 3 3 2 2 2 3 4 3 4 3 3 2 2 2 2 1 1 1 1 1 1 0 1 1 0
2 4 5 4 4 4 2 5 7 5 4 3 3 2 2 2 2 3 3 3 3 3 3 3 3 3 2 3 3 3 3 3 3 3 3 3 3 3 2 2 2 2 2 1 0 0 0 0 0
3 2 3 5 2 2 5 6 7 2 2 1 1 1 1 2 2 2 2 2 3 3 3 4 4 4 3 3 3 3 3 3 4 4 3 3 3 2 2 2 2 2 2 1 1 1 1 0 1
2 6 4 3 2 3 5 5 5 5 4 2 1 1 2 1 2 2 2 2 2 2 2 2 3 4 3 3 3 3 3 4 4 3 4 4 4 3 2 3 3 2 2 2 2 2 1 1 1
2 3 4 3 3 3 3 7 5 6 5 4 4 3 3 3 3 2 2 2 2 1 1 2 3 3 3 3 3 3 3 3 3 3 4 4 4 3 4 4 3 3 3 3 3 3 3 3 3
2 3 5 3 3 3 3 7 4 4 4 4 4 4 3 2 2 2 1 1 1 1 2 2 3 3 4 3 3 3 3 2 3 4 4 4 4 4 4 4 4 4 4 4 4 5 4 4 4
Wind_Direction
354 21 59 59 71 88 224 227 199 175 184 197 133 135 149 149 162 176 83 113 122 128 131 133 128 121 117 117 113 109 105 101 98 97 97 95 91 86 82 83 77 70 64 59 58 57 55 53 50
6 33 54 71 136 199 243 220 193 195 177 133 67 83 101 109 64 95 110 112 121 122 121 125 124 120 115 111 110 107 104 100 97 96 94 92 91 87 82 80 76 70 64 58 53 49 51 48 45
36 49 92 106 175 199 215 204 192 159 143 117 90 64 106 127 110 132 137 123 111 106 109 120 122 119 115 111 106 103 102 100 97 94 91 87 86 84 78 71 68 66 61 56 49 44 45 40 35
68 54 68 140 215 221 218 207 166 126 81 61 107 98 66 29 299 145 124 117 109 96 101 119 120 118 115 110 108 104 98 97 94 91 88 84 82 81 74 66 62 58 57 53 43 35 31 23 19
62 98 129 213 232 248 251 236 163 139 139 91 110 119 61 355 68 104 110 113 115 97 91 112 117 115 112 109 105 101 98 92 92 89 86 82 77 77 73 64 57 52 49 47 37 27 19 12 6
71 96 159 214 231 260 249 214 150 110 127 127 121 118 129 23 83 95 97 96 101 101 85 100 112 109 107 105 101 98 93 91 86 85 82 80 79 75 73 64 58 52 45 38 30 22 14 9 4
126 138 189 200 203 233 225 172 154 146 156 179 150 129 156 190 100 95 90 87 81 80 78 74 92 101 101 98 97 94 90 86 83 80 77 76 76 75 71 63 57 50 41 33 23 15 9 5 3
137 130 170 195 189 222 198 123 154 156 168 148 139 154 184 195 120 96 88 83 78 70 67 66 70 83 89 90 93 91 87 84 81 78 73 70 68 66 65 59 53 46 38 29 20 13 6 2 360
112 119 202 207 196 216 188 104 34 67 113 78 66 169 161 129 120 105 93 79 76 67 58 59 63 65 77 87 86 85 83 79 77 73 70 64 57 54 51 48 47 42 36 28 22 16 14 12 7
122 178 219 218 207 203 211 159 167 118 104 112 72 71 113 125 128 123 120 113 100 81 59 55 60 62 68 83 80 76 76 73 68 66 65 59 54 49 46 44 41 35 31 24 20 20 20 17 8
154 196 235 262 246 202 172 136 143 135 184 198 175 155 137 130 129 128 124 125 115 93 64 50 57 63 69 72 77 71 70 68 64 61 61 59 53 44 37 35 29 25 23 17 9 12 9 5 359
128 275 272 292 278 190 170 135 98 142 236 208 157 148 139 139 140 138 137 129 108 92 74 54 57 60 65 73 77 75 68 64 57 54 56 58 49 39 31 28 20 21 14 6 4 358 352 354 354
236 291 319 339 37 97 90 79 108 7 9 101 118 124 132 134 131 124 125 121 113 104 87 60 61 61 63 68 68 71 65 65 62 59 56 59 54 40 29 21 21 16 11 5 356 353 349 350 351
194 347 352 357 7 22 100 38 74 356 93 108 119 129 129 133 133 123 127 130 127 117 100 70 63 60 64 65 65 70 67 65 63 55 53 57 57 49 34 21 15 11 5 358 352 346 340 337 347
95 45 18 8 11 1 98 43 28 133 116 112 120 125 124 131 131 139 152 147 139 121 104 90 84 63 63 62 59 74 70 66 57 51 53 55 55 52 43 27 12 0 2 5 6 1 360 0 359
70 68 41 349 16 355 99 169 40 114 121 122 130 134 137 144 151 152 151 139 131 117 104 89 84 73 63 59 60 67 70 67 56 50 50 52 52 52 48 33 9 2 13 16 11 5 1 1 358
50 92 54 344 20 41 96 184 338 89 126 141 156 161 159 171 166 160 150 143 135 128 114 96 84 84 73 67 66 64 64 60 51 47 44 44 47 47 48 34 13 11 21 22 14 16 8 355 351
166 123 67 355 0 75 98 184 300 116 147 168 175 188 199 205 217 186 166 151 136 121 109 102 88 80 75 67 62 53 47 40 39 38 37 41 40 42 43 34 20 19 27 21 15 10 9 354 340
142 118 74 342 351 80 116 157 271 225 174 197 207 213 229 235 231 172 161 147 130 117 112 106 104 92 86 71 68 55 28 6 10 21 28 31 31 33 40 29 20 22 26 16 8 5 12 9 355
102 90 52 13 21 71 80 345 287 222 215 217 219 220 224 225 203 183 172 158 156 158 157 149 148 139 128 107 109 116 112 356 353 1 17 24 22 19 26 29 22 20 15 20 19 26 16 9 18
63 121 161 139 28 38 41 344 327 299 257 241 233 227 222 215 212 201 188 189 185 194 193 191 187 177 153 117 90 68 55 27 14 3 352 358 6 11 16 15 22 18 23 8 5 18 49 4 357
70 26 129 96 71 3 38 295 293 289 286 261 250 241 234 226 211 206 196 194 203 210 196 190 183 179 163 137 133 142 170 237 257 269 295 320 344 351 357 5 15 16 17 4 349 28 23 52 333
149 74 86 77 92 49 26 111 289 315 270 260 248 240 238 226 210 206 202 205 206 193 179 186 185 189 169 152 163 166 204 228 259 275 294 317 330 332 339 349 3 12 17 357 359 16 25 69 243
124 64 57 47 59 12 297 158 281 249 244 262 256 242 237 222 211 212 201 190 195 175 170 176 187 217 199 177 180 191 219 236 264 281 275 287 299 304 315 319 328 338 357 343 335 5 30 32 86
52 76 39 13 9 267 294 223 253 258 252 247 256 252 237 205 190 199 199 201 202 195 197 194 199 225 218 203 212 216 223 224 234 253 257 261 276 278 284 283 271 271 275 293 338 25 14 31 73
49 108 142 181 225 280 309 244 257 266 281 275 257 242 213 189 193 210 218 215 215 214 205 203 214 231 225 220 233 231 228 225 237 239 241 242 242 254 266 257 251 252 252 247 191 213 227 96 60
96 97 140 131 150 277 278 285 302 273 300 341 26 58 230 248 237 229 233 230 227 224 217 211 219 235 237 233 236 238 231 227 238 242 238 245 245 248 244 242 246 249 240 223 203 224 241 190 237
99 138 99 113 148 275 297 280 258 259 255 264 264 264 266 266 260 267 264 248 241 233 231 216 218 230 239 237 235 239 235 234 237 236 243 248 251 246 243 242 239 240 234 222 209 221 219 205 236
89 103 107 114 151 170 274 275 232 227 225 224 239 246 248 247 250 256 262 255 248 251 238 235 235 235 241 237 232 239 247 243 239 242 249 248 250 245 241 239 236 235 232 220 212 223 216 218 234
190 181 153 157 214 181 211 269 288 242 233 221 232 242 251 244 253 256 257 268 282 276 268 257 251 246 246 242 235 242 253 253 252 256 259 251 250 245 239 237 237 238 234 221 215 226 223 220 228
Height
1502 1503 1505 1507 1511 1519 1517 1511 1507 1507 1507 1506 1506 1507 1509 1512 1516 1520 1516 1515 1518 1521 1523 1526 1528 1530 1531 1533 1534 1535 1536 1537 1538 1539 1539 1540 1540 1541 1541 1541 1541 1542 1542 1542 1542 1542 1543 1543 1543
1501 1503 1506 1507 1514 1521 1516 1508 1506 1504 1504 1505 1506 1507 1508 1510 1511 1512 1513 1515 1518 1521 1523 1525 1527 1529 1531 1533 1534 1535 1536 1537 1538 1538 1539 1540 1540 1540 1541 1541 1541 1541 1542 1542 1542 1542 1542 1542 1542
1501 1502 1505 1507 1513 1513 1508 1504 1503 1503 1504 1504 1505 1507 1508 1509 1511 1512 1513 1515 1518 1521 1523 1525 1527 1529 1531 1532 1534 1535 1536 1537 1538 1538 1539 1539 1540 1540 1540 1540 1541 1541 1541 1541 1541 1541 1542 1542 1542
1501 1503 1505 1509 1509 1507 1503 1501 1501 1502 1503 1504 1505 1507 1509 1510 1511 1512 1514 1516 1518 1521 1523 1525 1527 1529 1531 1532 1533 1535 1536 1536 1537 1538 1538 1539 1539 1539 1540 1540 1540 1540 1540 1540 1540 1540 1541 1541 1541
1500 1502 1506 1509 1506 1503 1501 1500 1500 1501 1502 1503 1505 1506 1508 1510 1510 1512 1514 1516 1518 1521 1523 1526 1527 1529 1530 1532 1533 1534 1535 1536 1537 1537 1538 1538 1539 1539 1539 1539 1539 1539 1539 1539 1539 1539 1539 1540 1540
1500 1501 1508 1509 1505 1502 1500 1499 1500 1501 1502 1503 1504 1506 1507 1509 1510 1512 1514 1517 1519 1521 1523 1526 1527 1529 1530 1531 1533 1534 1535 1535 1536 1537 1537 1538 1538 1538 1538 1538 1538 1539 1538 1538 1538 1538 1538 1538 1538
1500 1503 1505 1505 1504 1502 1499 1498 1499 1500 1501 1502 1503 1505 1507 1509 1510 1512 1514 1517 1519 1521 1523 1525 1527 1528 1530 1531 1532 1533 1534 1535 1535 1536 1536 1537 1537 1537 1537 1537 1537 1537 1537 1537 1537 1537 1537 1537 1537
1498 1502 1503 1505 1503 1500 1498 1498 1498 1499 1500 1502 1503 1504 1505 1507 1509 1512 1514 1516 1519 1521 1523 1525 1526 1528 1529 1530 1532 1532 1533 1534 1534 1535 1535 1536 1536 1536 1536 1536 1536 1536 1536 1536 1536 1535 1535 1535 1535
1498 1504 1504 1502 1501 1498 1496 1497 1498 1498 1499 1501 1501 1503 1504 1506 1508 1511 1514 1516 1518 1520 1522 1524 1525 1527 1528 1530 1531 1532 1533 1533 1534 1534 1534 1535 1535 1535 1535 1535 1535 1535 1535 1534 1534 1534 1533 1533 1533
1497 1502 1500 1496 1496 1495 1495 1496 1497 1498 1499 1500 1501 1502 1504 1506 1508 1511 1513 1515 1517 1519 1521 1523 1524 1526 1527 1529 1530 1531 1532 1532 1533 1533 1533 1534 1534 1534 1534 1534 1534 1534 1533 1533 1533 1532 1532 1531 1531
1496 1498 1496 1494 1494 1494 1494 1495 1496 1497 1499 1498 1498 1500 1503 1506 1508 1511 1514 1516 1517 1519 1521 1522 1524 1525 1526 1528 1529 1530 1531 1531 1532 1532 1532 1532 1533 1533 1533 1532 1532 1532 1532 1531 1531 1530 1530 1529 1529
1496 1495 1495 1494 1493 1494 1494 1494 1496 1497 1497 1497 1498 1500 1502 1505 1508 1511 1514 1516 1518 1519 1520 1521 1523 1524 1526 1527 1528 1529 1530 1530 1531 1531 1531 1531 1531 1531 1531 1531 1531 1530 1530 1530 1529 1529 1528 1528 1527
1496 1495 1494 1493 1493 1494 1494 1495 1496 1497 1496 1497 1499 1501 1504 1506 1509 1512 1515 1516 1518 1519 1520 1521 1522 1524 1525 1526 1527 1528 1529 1529 1530 1530 1530 1530 1530 1530 1530 1529 1529 1529 1528 1528 1527 1527 1526 1526 1525
1496 1495 1495 1494 1493 1494 1495 1496 1496 1497 1498 1499 1500 1503 1505 1507 1510 1512 1514 1516 1517 1519 1520 1521 1522 1523 1524 1525 1526 1527 1528 1528 1529 1529 1529 1529 1529 1529 1528 1528 1527 1527 1527 1526 1526 1525 1524 1524 1523
1495 1496 1496 1495 1494 1495 1495 1498 1499 1498 1499 1500 1502 1504 1506 1508 1510 1512 1514 1516 1517 1518 1519 1520 1521 1522 1523 1524 1525 1525 1526 1527 1527 1528 1528 1528 1527 1527 1527 1526 1526 1525 1525 1525 1524 1523 1523 1522 1521
1496 1499 1501 1498 1496 1495 1498 1502 1500 1500 1500 1502 1504 1505 1507 1509 1510 1512 1514 1516 1517 1518 1519 1520 1521 1522 1522 1523 1523 1524 1525 1526 1526 1526 1526 1526 1526 1526 1526 1525 1524 1524 1523 1523 1522 1521 1521 1520 1519
1501 1505 1503 1500 1497 1497 1499 1502 1501 1501 1501 1503 1505 1506 1507 1509 1511 1512 1514 1515 1516 1518 1518 1519 1520 1521 1522 1522 1522 1522 1523 1524 1525 1525 1525 1525 1525 1524 1524 1524 1523 1522 1522 1521 1520 1520 1519 1518 1517
1504 1505 1503 1502 1500 1499 1501 1503 1502 1502 1503 1504 1505 1507 1508 1508 1510 1512 1514 1515 1517 1518 1518 1519 1519 1520 1521 1521 1521 1521 1522 1523 1523 1523 1523 1523 1523 1523 1522 1522 1521 1521 1520 1519 1519 1518 1517 1516 1516
1501 1503 1503 1502 1501 1501 1503 1503 1503 1503 1504 1504 1505 1505 1506 1508 1510 1512 1513 1515 1516 1517 1518 1518 1519 1519 1520 1520 1520 1520 1521 1521 1522 1522 1522 1521 1521 1521 1521 1520 1520 1519 1518 1517 1517 1516 1516 1515 1514
1501 1503 1505 1504 1502 1503 1504 1505 1503 1503 1503 1503 1503 1504 1505 1506 1508 1510 1512 1513 1515 1516 1517 1518 1518 1519 1519 1519 1519 1519 1520 1520 1520 1520 1520 1520 1519 1519 1519 1519 1518 1518 1517 1516 1515 1515 1514 1513 1513
1503 1505 1506 1506 1504 1505 1505 1505 1504 1503 1503 1503 1503 1503 1504 1505 1506 1508 1510 1511 1513 1515 1516 1517 1517 1518 1518 1517 1518 1518 1518 1518 1519 1519 1519 1518 1518 1518 1517 1517 1516 1516 1515 1514 1513 1513 1512 1512 1511
1505 1505 1505 1506 1509 1514 1512 1515 1506 1504 1503 1502 1501 1501 1502 1503 1504 1506 1508 1510 1511 1513 1514 1515 1516 1516 1516 1516 1516 1517 1517 1517 1517 1517 1517 1516 1516 1516 1515 1515 1514 1513 1513 1512 1512 1511 1510 1510 1509
1506 1505 1506 1508 1511 1516 1517 1518 1512 1506 1503 1501 1499 1499 1500 1501 1502 1504 1506 1508 1510 1511 1512 1513 1514 1514 1514 1514 1515 1515 1515 1515 1515 1515 1514 1514 1514 1514 1513 1513 1512 1512 1511 1510 1510 1509 1508 1508 1507
1505 1507 1509 1514 1516 1518 1519 1520 1513 1508 1501 1499 1497 1497 1497 1499 1501 1502 1504 1506 1508 1509 1510 1511 1512 1512 1513 1513 1513 1513 1513 1513 1513 1512 1512 1512 1512 1512 1511 1511 1510 1510 1509 1508 1507 1506 1505 1505 1504
1507 1513 1523 1523 1528 1523 1521 1519 1513 1501 1498 1497 1496 1495 1496 1497 1499 1501 1502 1504 1505 1507 1508 1509 1510 1510 1511 1511 1511 1511 1511 1511 1511 1510 1510 1510 1510 1509 1509 1508 1508 1507 1506 1506 1504 1503 1503 1502 1502
1511 1513 1523 1525 1528 1526 1521 1519 1506 1497 1496 1495 1495 1495 1495 1496 1497 1499 1501 1503 1504 1505 1506 1507 1507 1508 1508 1508 1509 1509 1509 1508 1508 1508 1508 1507 1507 1506 1506 1505 1505 1504 1503 1503 1502 1501 1500 1499 1499
1511 1517 1518 1526 1527 1526 1521 1514 1502 1496 1495 1494 1494 1494 1495 1496 1497 1498 1500 1501 1502 1503 1504 1505 1505 1506 1506 1506 1506 1506 1506 1505 1505 1505 1505 1504 1503 1503 1503 1502 1502 1501 1500 1499 1499 1498 1497 1496 1496
1512 1516 1522 1523 1522 1521 1516 1514 1508 1498 1496 1495 1494 1494 1495 1495 1497 1498 1499 1500 1501 1502 1502 1503 1503 1503 1503 1503 1503 1503 1503 1502 1502 1501 1501 1501 1501 1500 1499 1499 1498 1497 1497 1496 1495 1494 1494 1493 1493
1514 1516 1520 1525 1524 1524 1521 1511 1497 1495 1494 1494 1494 1494 1494 1495 1496 1497 1498 1499 1499 1500 1500 1500 1500 1500 1500 1500 1500 1500 1500 1499 1498 1498 1498 1498 1497 1496 1495 1495 1494 1493 1493 1492 1492 1491 1490 1490 1490
1513 1514 1519 1520 1522 1527 1526 1513 1493 1492 1492 1492 1492 1493 1494 1495 1495 1496 1496 1497 1498 1498 1498 1498 1498 1497 1497 1497 1497 1497 1496 1495 1495 1495 1494 1494 1493 1492 1491 1491 1490 1489 1489 1488 1488 1487 1487 1486 1486